Williston, ND

8:31 AM CDT on April 24, 2017 (GMT -0500)
Sloulin International

Weather History for KISN - December, 2012

Change the Weather History Date:

Friday, December 7, 2012

  Actual Average Record
Temperature  
Mean Temperature 17 °F 16 °F  
Max Temperature 19 °F 27 °F 49 °F (1965)
Min Temperature 14 °F 6 °F -30 °F (1972)
Degree Days  
Heating Degree Days 48 49  
Month to date heating degree days 269 333  
Since 1 July heating degree days 2429 2495  
Cooling Degree Days 0 0  
Month to date cooling degree days 0 0  
Year to date cooling degree days 532 456  
Moisture  
Dew Point 15 °F    
Average Humidity 92    
Maximum Humidity 100    
Minimum Humidity 84    
Precipitation  
Precipitation 0.04 in 0.02 in 0.40 in (1945)
Month to date precipitation 0.05 0.14  
Year to date precipitation 12.68 13.89  
Snow  
Snow 0.00 in - - ()
Month to date snowfall 0.0  
Snow Depth 1.00 in    
Sea Level Pressure  
Sea Level Pressure 29.98 in    
Wind  
Wind Speed 9 mph (East)    
Max Wind Speed 15 mph    
Max Gust Speed 21 mph    
Visibility 6 miles    
Events Snow    
T = Trace of Precipitation, MM = Missing Value Source: NWS Daily Summary

Daily Weather History Graph

Daily Weather History Graph

Search for Another Location

Airport or City:

Trip Planner

Search our weather history database for the weather conditions in past years. The results will help you decide how hot, cold, wet, or windy it might be!

Date:

Astronomy

Dec. 07, 2012 Rise Set
Actual Time 8:31 AM CST 5:00 PM CST
Civil Twilight 7:55 AM CST 5:37 PM CST
Nautical Twilight 7:15 AM CST 6:16 PM CST
Astronomical Twilight 6:38 AM CST 6:54 PM CST
Moon 1:27 AM CST (12/7) 1:22 PM CST (12/7)
Length of Visible Light 9h 41m
Length of Day
8h 29m
Last Quarter, 38% of the Moon is Illuminated
Dec 7
Last Quarter
Dec 13
New
Dec 19
First Quarter
Dec 28
Full
Jan 4
Last Quarter

Hourly Weather History & Observations

Time (CST) Temp. Windchill Dew Point Humidity Pressure Visibility Wind Dir Wind Speed Gust Speed Precip Events Conditions
12:52 AM 14.0 °F 2.0 °F 14.0 °F 100% 30.03 in 9.0 mi North 9.2 mph - N/A   Clear
1:02 AM 14.0 °F 2.0 °F 14.0 °F 100% 29.94 in 7.0 mi North 9.2 mph - N/A   Scattered Clouds
1:11 AM 15.8 °F 3.4 °F 14.0 °F 93% 29.94 in 5.0 mi North 10.4 mph - N/A   Mostly Cloudy
1:25 AM 15.8 °F 2.1 °F 15.8 °F 100% 29.93 in 2.5 mi North 12.7 mph - N/A   Overcast
1:33 AM 15.8 °F 3.4 °F 15.8 °F 100% 29.93 in 4.0 mi NNE 10.4 mph - N/A   Overcast
1:52 AM 15.1 °F 1.1 °F 15.1 °F 100% 30.03 in 3.0 mi NNE 12.7 mph - N/A   Overcast
1:58 AM 15.8 °F 2.1 °F 15.8 °F 100% 29.93 in 2.5 mi NNE 12.7 mph - N/A   Overcast
2:06 AM 15.8 °F 2.1 °F 15.8 °F 100% 29.93 in 1.5 mi NNE 12.7 mph - N/A   Overcast
2:19 AM 15.8 °F 2.7 °F 15.8 °F 100% 29.93 in 3.0 mi NNE 11.5 mph - N/A   Overcast
2:52 AM 15.1 °F 1.1 °F 15.1 °F 100% 30.03 in 3.0 mi NNE 12.7 mph - N/A   Overcast
3:43 AM 15.8 °F 5.1 °F 15.8 °F 100% 29.94 in 9.0 mi NNE 8.1 mph - N/A   Overcast
3:52 AM 15.1 °F 2.5 °F 15.1 °F 100% 30.03 in 8.0 mi NNE 10.4 mph - N/A   Overcast
4:52 AM 14.0 °F 2.9 °F 14.0 °F 100% 30.04 in 10.0 mi NE 8.1 mph - N/A   Overcast
5:52 AM 15.1 °F 3.3 °F 14.0 °F 95% 30.05 in 9.0 mi East 9.2 mph - N/A   Overcast
6:52 AM 15.1 °F 4.2 °F 14.0 °F 95% 30.07 in 7.0 mi ENE 8.1 mph - N/A   Overcast
7:52 AM 15.1 °F 3.3 °F 15.1 °F 100% 30.08 in 4.0 mi ENE 9.2 mph - N/A   Overcast
8:52 AM 15.1 °F 2.5 °F 14.0 °F 95% 30.08 in 8.0 mi East 10.4 mph - N/A   Overcast
9:52 AM 15.1 °F 4.2 °F 15.1 °F 100% 30.09 in 5.0 mi ENE 8.1 mph - N/A   Overcast
10:52 AM 16.0 °F 5.3 °F 15.1 °F 96% 30.10 in 5.0 mi East 8.1 mph - N/A   Overcast
11:37 AM 17.6 °F 8.2 °F 15.8 °F 93% 29.99 in 5.0 mi East 6.9 mph - 0.00 in Snow Light Snow
11:52 AM 17.1 °F 5.8 °F 15.1 °F 92% 30.09 in 6.0 mi East 9.2 mph - 0.00 in Snow Light Snow
12:52 PM 17.1 °F 6.6 °F 16.0 °F 96% 30.08 in 6.0 mi East 8.1 mph - 0.00 in Snow Light Snow
1:00 PM 17.6 °F 7.3 °F 15.8 °F 93% 29.96 in 1.5 mi East 8.1 mph - 0.00 in Snow Light Snow
1:09 PM 17.6 °F 8.2 °F 15.8 °F 93% 29.95 in 3.0 mi ESE 6.9 mph - 0.00 in Snow Light Snow
1:52 PM 17.1 °F 8.7 °F 17.1 °F 100% 30.06 in 6.0 mi East 5.8 mph - 0.00 in Snow Light Snow
2:52 PM 17.1 °F 5.0 °F 16.0 °F 96% 30.04 in 8.0 mi East 10.4 mph - 0.00 in   Overcast
3:52 PM 18.0 °F 7.7 °F 16.0 °F 92% 30.03 in 8.0 mi East 8.1 mph - N/A   Overcast
4:52 PM 17.1 °F 6.6 °F 16.0 °F 96% 30.02 in 9.0 mi East 8.1 mph - N/A   Overcast
5:52 PM 16.0 °F 4.4 °F 15.1 °F 96% 30.02 in 10.0 mi ESE 9.2 mph - N/A   Overcast
6:29 PM 15.8 °F 2.7 °F 15.8 °F 100% 29.89 in 2.5 mi ESE 11.5 mph - 0.00 in Snow Light Snow
6:46 PM 17.6 °F 3.2 °F 15.8 °F 93% 29.89 in 1.5 mi ESE 15.0 mph 20.7 mph 0.01 in Snow Light Snow
6:52 PM 17.1 °F 4.3 °F 15.1 °F 92% 30.00 in 1.8 mi ESE 11.5 mph - 0.01 in Snow Light Snow
7:19 PM 17.6 °F 5.0 °F 15.8 °F 93% 29.88 in 1.2 mi SE 11.5 mph - 0.01 in Snow Light Snow
7:52 PM 18.0 °F 6.1 °F 16.0 °F 92% 29.97 in 3.0 mi SE 10.4 mph - 0.02 in Snow Light Snow
8:00 PM 17.6 °F 7.3 °F 15.8 °F 93% 29.86 in 2.0 mi SE 8.1 mph - 0.01 in Snow Light Snow
8:05 PM 17.6 °F 6.4 °F 15.8 °F 93% 29.86 in 1.5 mi SE 9.2 mph - 0.01 in Snow Light Snow
8:15 PM 17.6 °F 6.4 °F 15.8 °F 93% 29.85 in 3.0 mi ESE 9.2 mph - 0.01 in Snow Light Snow
8:52 PM 19.0 °F 9.0 °F 15.1 °F 85% 29.96 in 10.0 mi SE 8.1 mph - 0.01 in   Overcast
9:52 PM 19.0 °F 10.0 °F 15.1 °F 85% 29.94 in 10.0 mi SE 6.9 mph - N/A   Overcast
10:52 PM 19.0 °F 10.0 °F 16.0 °F 88% 29.92 in 6.0 mi ESE 6.9 mph - N/A   Overcast
11:41 PM 19.4 °F 10.4 °F 15.8 °F 86% 29.80 in 6.0 mi East 6.9 mph - N/A   Overcast
11:52 PM 19.0 °F 10.0 °F 16.0 °F 88% 29.91 in 6.0 mi East 6.9 mph - N/A   Overcast